Location: Abraham Lincoln Continuation High School
(33.9711°N, 117.3662°W)
Time: 00:48:40
(UTC+00:00)

Iridium 4 Rocket - Pass Details

Date: 24 January 2021
Orbit: 583 x 906 km, 86.9° (Epoch: 03 March)

Event Time Altitude Azimuth Distance (km) Brightness Sun altitude
Rises 13:39:35 0° 135° (SE) 3,387 7.9 -14.9°
Reaches altitude 10° 13:42:50 10° 115° (ESE) 2,505 7.5 -14.3°
Maximum altitude 13:46:14 16° 78° (ENE) 2,123 6.7 -13.6°
Drops below altitude 10° 13:49:42 10° 41° (NE) 2,578 6.6 -12.9°
Sets 13:53:06 0° 22° (NNE) 3,536 7.0 -12.2°
